Regional Weather Roundup
Issued by NWS

Home | Current Version | Previous Version | Text Only | Print | Product List | Glossary Off
Versions: 1 2 3 4 5 6 7 8 9 10 11 12 13 14 15 16 17 18 19 20 21 22 23 24 25 26 27 28 29 30 31 32 33 34 35 36 37 38 39 40 41 42 43 44 45 46 47 48 49 50

000
ASUS44 KMEG 280800
RWRTN
TENNESSEE HOURLY STATE WEATHER ROUNDUP
NATIONAL WEATHER SERVICE MEMPHIS TN
200 AM CST SAT FEB 28 2015

TNZ002-004-019-021-049-052-054-088>092-280900-
WEST TENNESSEE

CITY           SKY/WX    TMP DP  RH WIND       PRES   REMARKS
MEMPHIS INTL   CLOUDY    29  13  51 NE9       30.51F WCI  20
NWS MEMPHIS      N/A     28 N/A N/A MISG        N/A
JACKSON        CLOUDY    28  10  46 E10       30.53F WCI  19
DYERSBURG      CLOUDY    27   7  43 NE8       30.58S WCI  18
UNION CITY     CLOUDY    21  12  68 NE8       30.57S WCI  12
PARIS          CLOUDY    19  10  68 NE7       30.56S WCI  10
LEXINGTON      CLOUDY    25   7  46 NE6       30.51F WCI  18
SAVANNAH       MOCLDY    27   9  46 NE3       30.53F
$$

TNZ008-025-027-028-033-062-065-066-280900-
NORTH MIDDLE TENNESSEE

CITY           SKY/WX    TMP DP  RH WIND       PRES   REMARKS
NASHVILLE      CLOUDY    25   9  50 E7        30.56F WCI  17
CLARKSVILLE    CLOUDY    23  13  65 NE8       30.58S WCI  14
COOKEVILLE     MOCLDY    21  12  68 NE6       30.52S WCI  14
CROSSVILLE     CLOUDY    20  10  65 NE7       30.48S WCI  11
$$

TNZ061-075-076-078-094-096-097-280900-
SOUTH MIDDLE TENNESSEE

CITY           SKY/WX    TMP DP  RH WIND       PRES   REMARKS
FAYETTEVILLE   MOCLDY    25  12  58 NE9         N/A  WCI  15
TULLAHOMA      PTCLDY    25  10  54 NE6       30.50S WCI  18
WINCHESTER     CLOUDY    25  16  68 N7        30.50F WCI  17
COLUMBIA         N/A     25  10  54 NE6       30.52F WCI  18
SHELBYVILLE    CLOUDY    25  12  58 N6        30.54S WCI  18
$$

TNZ017-018-042-046-047-280900-
NORTHEAST TENNESSEE

CITY           SKY/WX    TMP DP  RH WIND       PRES   REMARKS
TRI CITIES     CLOUDY    18  13  80 CALM      30.53S
ELIZABETHTON   MOSUNNY   18  12  79 CALM      30.52S
$$

TNZ012-013-036-069-073-074-280900-
CENTRAL EAST TENNESSEE

CITY           SKY/WX    TMP DP  RH WIND       PRES   REMARKS
KNOXVILLE      MOCLDY    24  13  62 NE6       30.53S WCI  17
OAK RIDGE      CLOUDY    27  11  51 VRB6      30.55S WCI  20
GATLINBURG     MOSUNNY   18  18 100 CALM      30.54S
$$

TNZ083-085-099-280900-
SOUTHEAST TENNESSEE

CITY           SKY/WX    TMP DP  RH WIND       PRES   REMARKS
CHATTANOOGA    CLOUDY    30  13  49 N10       30.52F WCI  21
$$

SKY/WX REPORTED AS FAIR MEANS FEW OR NO CLOUDS BELOW
12 THOUSAND FEET.




USA.gov is the U.S. government's official web portal to all federal, state and local government web resources and services.